This demonstration page uses our WeatherBlox Daily Observations layout. Learn more.

Left ArrowRight Arrow

41.86663, -103.66717

Hourly Observations for March 1, 2021

Temp ( °F °C ) Dew Point ( °F °C ) Humidity (%) Winds ( mph kmh ) Pressure ( in mb ) Visibility ( mi km ) Precip ( " mm )
12:53 am 00:53 Clear 22 -5.6 13 -10.6 68 68 W 5 7 30.29 1026 10 16.0934 0 0
1:53 am 01:53 Clear 24 -4.4 14 -10 65 65 W 7 11 30.3 1026 10 16.0934 0 0
2:53 am 02:53 Clear 27 -2.8 14 -10 58 58 WNW 10 17 30.29 1026 10 16.0934 0 0
3:53 am 03:53 Clear 21 -6.1 12 -11.1 68 68 W 5 7 30.33 1027 10 16.0934 0 0
4:53 am 04:53 Clear 22 -5.6 12 -11.1 66 66 NNW 3 6 30.35 1028 10 16.0934 0 0
5:53 am 05:53 Clear 19 -7.2 11 -11.7 71 71 NW 6 9 30.38 1029 10 16.0934 0 0
6:53 am 06:53 Sunny 21 -6.1 13 -10.6 71 71 NNW 7 11 30.39 1029 10 16.0934 0 0
7:53 am 07:53 Sunny 28 -2.2 14 -10 56 56 WNW 7 11 30.39 1029 10 16.0934 0 0
8:53 am 08:53 Sunny 35 1.7 14 -10 42 42 WNW 14 22 30.39 1029 10 16.0934 0 0
9:53 am 09:53 Sunny 40 4.4 13 -10.6 33 33 WNW 12 19 30.37 1028 10 16.0934 0 0
10:53 am 10:53 Sunny 45 7.2 13 -10.6 27 27 WNW 10 17 30.35 1028 10 16.0934 0 0
11:53 am 11:53 Sunny 48 8.9 13 -10.6 24 24 WNW 8 13 30.32 1027 10 16.0934 0 0
12:53 pm 12:53 Sunny 50 10 13 -10.6 22 22 W 8 13 30.28 1025 10 16.0934 0 0
1:53 pm 13:53 Sunny 51 10.6 13 -10.6 22 22 SSW 7 11 30.24 1024 10 16.0934 0 0
2:53 pm 14:53 Sunny 54 12.2 13 -10.6 19 19 W 12 19 30.21 1023 10 16.0934 0 0
3:53 pm 15:53 Sunny 54 12.2 13 -10.6 19 19 WSW 10 17 30.2 1023 10 16.0934 0 0
4:53 pm 16:53 Sunny 53 11.7 13 -10.6 20 20 S 6 9 30.18 1022 10 16.0934 0 0
5:53 pm 17:53 Clear 46 7.8 13 -10.6 26 26 S 8 13 30.21 1023 10 16.0934 0 0
6:53 pm 18:53 Clear 40 4.4 11 -11.7 30 30 WNW 8 13 30.21 1023 10 16.0934 0 0
7:53 pm 19:53 Clear 41 5 11 -11.7 29 29 SSW 6 9 30.18 1022 10 16.0934 0 0
8:53 pm 20:53 Clear 37 2.8 13 -10.6 37 37 Calm 30.17 1022 10 16.0934 0 0
9:53 pm 21:53 Clear 28 -2.2 16 -8.9 60 60 Calm 30.18 1022 10 16.0934 0 0
10:53 pm 22:53 Clear 27 -2.8 16 -8.9 63 63 ESE 3 6 30.14 1021 10 16.0934 0 0
11:53 pm 23:53 Clear 27 -2.8 16 -8.9 63 63 Calm 30.11 1020 10 16.0934 0 0

Powered by AerisWeather